Weather Roundup
Issued by NWS

Home | Current Version | Previous Version | Text Only | Print | Product List | Glossary On
Versions: 1 2 3 4 5 6 7 8 9 10 11 12 13 14 15 16 17 18 19 20 21 22 23 24 25 26 27 28 29 30 31 32 33 34 35 36 37 38 39 40 41 42 43 44 45 46 47 48 49 50
000
NZUS93 KARX 291110
HRRWXR

CURRENT HOURLY OBSERVATIONS ACROSS
MUCH OF THE UPPER MISSISSIPPI VALLEY
NATIONAL WEATHER SERVICE LA CROSSE WI
600 AM CDT FRI MAY 29 2015


...SOUTHEAST MINNESOTA...


CITY           SKY/WX    TMP DP  RH WIND       PRES   REMARKS
ROCHESTER      CLOUDY    64  62  93 S10       29.92R
ROCHESTER/MAYO CLOUDY    64  64  98 S10       29.91S
WINONA         MOCLDY    63  59  88 SE5       29.91F
AUSTIN         CLOUDY    64  63  94 S8        29.91R
ALBERT LEA     CLOUDY    66  63  88 S8        29.89S
DODGE CENTER   CLOUDY    64  63  94 S10       29.90S
PRESTON        MOCLDY    62  60  91 S7        29.93S
OWATONNA       CLOUDY    64  61  88 S8        29.88S
FARIBAULT      CLOUDY    64  63  94 SE7       29.88S
$$

...ELSEWHERE IN MINNESOTA...


CITY           SKY/WX    TMP DP  RH WIND       PRES   REMARKS
MINNEAPOLIS    CLOUDY    65  63  93 S6        29.87S
INTNL FALLS    HVY RAIN  59  57  93 N13       29.83R FOG
DULUTH         MOCLDY    53  48  83 S7        29.85F
RED WING         N/A     64  61  88 SE7       29.88S
REDWOOD FALLS  CLOUDY    64  61  90 S9        29.83S
MANKATO        CLOUDY    66  63  88 S8        29.87R
WORTHINGTON    CLOUDY    63  57  82 SE6       29.86F
FAIRMONT       CLOUDY    63  55  77 S8        29.88R
$$

...SOUTHWEST WISCONSIN...


CITY           SKY/WX    TMP DP  RH WIND       PRES   REMARKS
LA CROSSE      MOCLDY    65  61  87 SE10      29.91F
PRAIRIE DU CHI CLOUDY    64  61  90 E7        29.94F
BOSCOBEL       CLOUDY    63  61  93 CALM      29.96F
LONE ROCK      LGT RAIN  63  61  93 E7        29.97F
PLATTEVILLE    CLOUDY    63  62  97 E8        29.97F
FORT MC COY    MOCLDY    60  59  96 CALM      29.95S
VIROQUA        PTSUNNY   61  61 100 SE9       29.96S
WIS DELLS      LGT RAIN  62  59  91 S6        29.98S
$$

...ELSEWHERE IN WISCONSIN...


CITY           SKY/WX    TMP DP  RH WIND       PRES   REMARKS
MILWAUKEE      MOCLDY    63  55  75 S8        30.01S
MADISON        CLOUDY    63  60  90 W5        30.01R THUNDER
GREEN BAY      CLOUDY    66  56  70 S6        30.00R
EAU CLAIRE     CLOUDY    63  59  87 S7        29.90F
BLACK RVR FLS  FAIR      61  61 100 CALM      29.93F
MEDFORD        CLOUDY    59  57  91 S10       29.95S
WAUSAU         CLOUDY    63  57  81 S8        29.96F
WIS RAPIDS     CLOUDY    61  58  90 SE5       29.98F
MARSHFIELD     CLOUDY    61  58  90 SE7       29.95F
RICE LAKE      CLOUDY    61  58  90 SE3       29.91S
$$

...NORTHEAST IOWA...


CITY           SKY/WX    TMP DP  RH WIND       PRES   REMARKS
DECORAH        CLOUDY    64  63  94 S7        29.93S
MASON CITY     CLOUDY    64  62  93 S8        29.92R
CHARLES CITY   MOCLDY    63  63 100 S13       29.93S
OELWEIN        CLOUDY    64  63  94 S7        29.96R
$$

...ELSEWHERE IN IOWA...


CITY           SKY/WX    TMP DP  RH WIND       PRES   REMARKS
DES MOINES     PTCLDY    63  61  93 S7        29.92F
IOWA CITY      CLOUDY    65  62  90 SE5       29.96S
FORT DODGE     MOCLDY    63  59  88 S8        29.90F
$$

...NORTHERN ILLINOIS...


CITY           SKY/WX    TMP DP  RH WIND       PRES   REMARKS
CHICAGO-OHARE  CLOUDY    65  60  84 S5        30.01S
CHICAGO-MIDWAY CLOUDY    72  64  76 S6        30.02S
MOLINE         CLOUDY    67  62  84 S6        29.96S
ROCKFORD       CLOUDY    66  59  78 S3        30.01S
PEORIA         MOCLDY    70  64  81 SE7       30.00S
$$

NOTE: "FAIR" INDICATES FEW OR NO CLOUDS BELOW 12,000 FEET WITH NO
SIGNIFICANT WEATHER AND/OR OBSTRUCTIONS TO VISIBILITY. WIND
SPEEDS ARE IN MILES-PER-HOUR.



USA.gov is the U.S. government's official web portal to all federal, state and local government web resources and services.